This is the latest recevied weather packets stored in our database for station/object K8RRT. If no packets are shown the sender has not sent any weather packets the latest 10 day(s).
| Time | Temp. | Humidity | Pressure | Rain* | Wind** | Luminosity | Snow |
|---|---|---|---|---|---|---|---|
| 1777741107 | 11.67° C | 48% | 1012.4 hPa | 0 mm | - | 860 W/m² | - |
| 1777740804 | 11.67° C | 48% | 1012.5 hPa | 0 mm | - | 163 W/m² | - |
| 1777740501 | 11.67° C | 47% | 1012.4 hPa | 0 mm | - | 172 W/m² | - |
| 1777740198 | 11.67° C | 46% | 1012.4 hPa | 0 mm | - | 235 W/m² | - |
| 1777739894 | 12.22° C | 50% | 1012.6 hPa | 0 mm | - | 774 W/m² | - |
| 1777739591 | 11.67° C | 52% | 1012.8 hPa | 0 mm | - | 875 W/m² | - |
| 1777739288 | 11.11° C | 55% | 1012.4 hPa | 0 mm | - | 239 W/m² | - |
| 1777738985 | 11.67° C | 51% | 1012.8 hPa | 0 mm | - | 135 W/m² | - |
| 1777738681 | 11.67° C | 50% | 1012.6 hPa | 0 mm | - | 147 W/m² | - |
| 1777738377 | 13.33° C | 51% | 1012.7 hPa | 0 mm | - | 353 W/m² | - |
| 1777738076 | 11.67° C | 51% | 1012.7 hPa | 0 mm | - | 244 W/m² | - |
| 1777737775 | 12.22° C | 52% | 1012.7 hPa | 0 mm | - | 246 W/m² | - |
| 1777737473 | 12.22° C | 51% | 1012.8 hPa | 0 mm | - | 871 W/m² | - |
| 1777737170 | 12.22° C | 50% | 1012.6 hPa | 0 mm | - | 990 W/m² | - |
| 1777736865 | 12.22° C | 52% | 1012.6 hPa | 0 mm | - | 586 W/m² | - |
| 1777736252 | 12.22° C | 52% | 1012.8 hPa | 0 mm | - | 203 W/m² | - |
| 1777735949 | 12.22° C | 51% | 1013 hPa | 0 mm | - | 359 W/m² | - |
| 1777735647 | 11.67° C | 50% | 1013 hPa | 0 mm | - | 912 W/m² | - |
| 1777735344 | 11.67° C | 50% | 1013.2 hPa | 0 mm | - | 799 W/m² | - |
| 1777735041 | 11.67° C | 51% | 1013.1 hPa | 0 mm | - | 596 W/m² | - |
| 1777734738 | 11.67° C | 52% | 1013 hPa | 0 mm | - | 928 W/m² | - |
| 1777734436 | 11.67° C | 50% | 1012.8 hPa | 0 mm | - | 876 W/m² | - |
| 1777734132 | 11.11° C | 52% | 1013.1 hPa | 0 mm | - | 838 W/m² | - |
| 1777733829 | 10.56° C | 54% | 1012.9 hPa | 0 mm | - | 810 W/m² | - |
| 1777733525 | 11.11° C | 54% | 1013.1 hPa | 0 mm | - | 842 W/m² | - |
* Rain latest hour (hover to see other rain measurements)
** Current wind speed in m/s (hover to see current wind gust speed)